When you browse on this site, cookies collect data to enhance your experience and personalize the content and advertising you see.
Visit our Privacy Policy to learn more. By continuing to use the site, you agree to this use of cookies and data.
  • In Austria
  • List of Countries
  • For 7 days
  • Water Temperature
  • Weather Map
  • News
  • Weather Widgets
  • user-avatar
    Login

    Hourly Weather Sofia

    Today, 18 October, Friday

    Time Temperature Precipitation Wind Pressure Humidity
    00:00 +15°C° 0 mm 1 mps 712 mmHg 58%
    01:00 +14°C° 0 mm 0 mps 712 mmHg 59%
    02:00 +14°C° 0 mm 1 mps 712 mmHg 59%
    03:00 +14°C° 0 mm 1 mps 712 mmHg 60%
    04:00 +13°C° 0 mm 0 mps 712 mmHg 61%
    05:00 +13°C° 0 mm 0 mps 712 mmHg 62%
    06:00 +13°C° 0 mm 0 mps 712 mmHg 60%
    07:00 +14°C° 0 mm 0 mps 712 mmHg 58%
    08:00 +15°C° 0 mm 0 mps 713 mmHg 56%
    09:00 +17°C° 0 mm 0 mps 713 mmHg 50%
    10:00 +20°C° 0 mm 0 mps 713 mmHg 44%
    11:00 +24°C° 0 mm 1 mps 714 mmHg 38%
    12:00 +25°C° 0 mm 1 mps 713 mmHg 36%
    13:00 +26°C° 0 mm 1 mps 713 mmHg 34%
    14:00 +27°C° 0 mm 1 mps 712 mmHg 32%
    15:00 +25°C° 0 mm 1 mps 712 mmHg 35%
    16:00 +24°C° 0 mm 1 mps 712 mmHg 39%
    17:00 +23°C° 0 mm 1 mps 712 mmHg 43%
    18:00 +22°C° 0 mm 1 mps 711 mmHg 47%
    19:00 +20°C° 0 mm 1 mps 711 mmHg 52%
    20:00 +18°C° 0 mm 1 mps 711 mmHg 56%
    21:00 +18°C° 0 mm 1 mps 711 mmHg 58%
    22:00 +16°C° 0 mm 1 mps 712 mmHg 59%
    23:00 +16°C° 0 mm 1 mps 712 mmHg 61%

    Tomorrow, 19 October, Saturday

    Time Temperature Precipitation Wind Pressure Humidity
    00:00 +16°C° 0 mm 1 mps 712 mmHg 63%
    01:00 +14°C° 0 mm 0 mps 712 mmHg 64%
    02:00 +14°C° 0 mm 0 mps 712 mmHg 66%
    03:00 +14°C° 0 mm 0 mps 712 mmHg 68%
    04:00 +13°C° 0 mm 0 mps 712 mmHg 69%
    05:00 +13°C° 0 mm 0 mps 712 mmHg 71%
    06:00 +14°C° 0 mm 0 mps 712 mmHg 69%
    07:00 +14°C° 0 mm 0 mps 712 mmHg 67%
    08:00 +15°C° 0 mm 0 mps 712 mmHg 65%
    09:00 +17°C° 0 mm 0 mps 713 mmHg 58%
    10:00 +20°C° 0 mm 0 mps 713 mmHg 51%
    11:00 +24°C° 0 mm 1 mps 713 mmHg 44%
    12:00 +25°C° 0 mm 1 mps 713 mmHg 41%
    13:00 +26°C° 0 mm 1 mps 713 mmHg 38%
    14:00 +26°C° 0 mm 1 mps 713 mmHg 35%
    15:00 +25°C° 0 mm 1 mps 712 mmHg 38%
    16:00 +24°C° 0 mm 1 mps 712 mmHg 41%
    17:00 +23°C° 0 mm 1 mps 712 mmHg 44%
    18:00 +22°C° 0 mm 1 mps 712 mmHg 49%
    19:00 +20°C° 0 mm 1 mps 712 mmHg 53%
    20:00 +19°C° 0 mm 1 mps 712 mmHg 58%
    21:00 +18°C° 0 mm 1 mps 712 mmHg 60%
    22:00 +18°C° 0 mm 1 mps 713 mmHg 62%
    23:00 +16°C° 0 mm 1 mps 713 mmHg 65%

    Day after tomorrow, 20 October, Sunday

    Time Temperature Precipitation Wind Pressure Humidity
    00:00 +16°C° 0 mm 1 mps 713 mmHg 67%
    01:00 +15°C° 0 mm 1 mps 713 mmHg 69%
    02:00 +14°C° 0 mm 0 mps 713 mmHg 72%
    03:00 +14°C° 0 mm 0 mps 713 mmHg 73%
    04:00 +13°C° 0 mm 0 mps 713 mmHg 74%
    05:00 +13°C° 0 mm 0 mps 713 mmHg 75%
    06:00 +14°C° 0 mm 0 mps 713 mmHg 72%
    07:00 +14°C° 0 mm 0 mps 713 mmHg 69%
    08:00 +15°C° 0 mm 0 mps 714 mmHg 66%
    09:00 +18°C° 0 mm 0 mps 714 mmHg 58%
    10:00 +20°C° 0 mm 0 mps 714 mmHg 50%
    11:00 +24°C° 0 mm 1 mps 715 mmHg 43%
    12:00 +25°C° 0 mm 1 mps 715 mmHg 39%
    13:00 +26°C° 0 mm 1 mps 714 mmHg 36%
    14:00 +27°C° 0 mm 1 mps 714 mmHg 32%
    15:00 +26°C° 0 mm 1 mps 714 mmHg 35%
    16:00 +25°C° 0 mm 1 mps 714 mmHg 38%
    17:00 +21°C° 0 mm 0 mps 713 mmHg 41%
    18:00 +22°C° 0 mm 1 mps 714 mmHg 46%
    19:00 +20°C° 0 mm 1 mps 714 mmHg 51%
    20:00 +19°C° 0 mm 1 mps 714 mmHg 55%
    21:00 +18°C° 0 mm 1 mps 714 mmHg 58%
    22:00 +18°C° 0 mm 1 mps 714 mmHg 61%
    23:00 +16°C° 0 mm 1 mps 714 mmHg 64%

    21 October, Monday

    Time Temperature Precipitation Wind Pressure Humidity
    00:00 +16°C° 0 mm 1 mps 714 mmHg 65%
    01:00 +15°C° 0 mm 1 mps 714 mmHg 67%
    02:00 +14°C° 0 mm 0 mps 714 mmHg 69%
    03:00 +14°C° 0 mm 0 mps 714 mmHg 69%
    04:00 +13°C° 0 mm 0 mps 714 mmHg 70%
    05:00 +13°C° 0 mm 0 mps 714 mmHg 71%
    06:00 +14°C° 0 mm 0 mps 714 mmHg 69%
    07:00 +15°C° 0 mm 0 mps 714 mmHg 66%
    08:00 +15°C° 0 mm 0 mps 715 mmHg 64%
    09:00 +18°C° 0 mm 0 mps 715 mmHg 56%
    10:00 +20°C° 0 mm 0 mps 715 mmHg 48%
    11:00 +23°C° 0 mm 0 mps 716 mmHg 40%
    12:00 +25°C° 0 mm 1 mps 716 mmHg 37%
    13:00 +26°C° 0 mm 1 mps 715 mmHg 34%
    14:00 +27°C° 0 mm 1 mps 715 mmHg 32%
    15:00 +26°C° 0 mm 1 mps 715 mmHg 35%
    16:00 +25°C° 0 mm 1 mps 715 mmHg 39%
    17:00 +23°C° 0 mm 1 mps 714 mmHg 42%
    18:00 +22°C° 0 mm 1 mps 714 mmHg 47%
    19:00 +20°C° 0 mm 1 mps 714 mmHg 51%
    20:00 +19°C° 0 mm 1 mps 714 mmHg 56%
    21:00 +18°C° 0 mm 1 mps 714 mmHg 58%
    22:00 +18°C° 0 mm 1 mps 715 mmHg 60%
    23:00 +15°C° 0 mm 0 mps 715 mmHg 62%

    22 October, Tuesday

    Time Temperature Precipitation Wind Pressure Humidity
    00:00 +15°C° 0 mm 0 mps 715 mmHg 63%
    01:00 +14°C° 0 mm 0 mps 715 mmHg 65%
    02:00 +14°C° 0 mm 0 mps 714 mmHg 66%
    03:00 +14°C° 0 mm 0 mps 714 mmHg 67%
    04:00 +13°C° 0 mm 0 mps 714 mmHg 68%
    05:00 +13°C° 0 mm 0 mps 714 mmHg 69%
    06:00 +14°C° 0 mm 0 mps 715 mmHg 67%
    07:00 +14°C° 0 mm 0 mps 715 mmHg 65%
    08:00 +15°C° 0 mm 0 mps 715 mmHg 62%
    09:00 +18°C° 0 mm 0 mps 715 mmHg 54%
    10:00 +20°C° 0 mm 0 mps 716 mmHg 46%
    11:00 +23°C° 0 mm 0 mps 716 mmHg 38%
    12:00 +25°C° 0 mm 1 mps 716 mmHg 35%
    13:00 +26°C° 0 mm 1 mps 715 mmHg 32%
    14:00 +27°C° 0 mm 1 mps 715 mmHg 29%
    15:00 +26°C° 0 mm 1 mps 715 mmHg 33%
    16:00 +24°C° 0 mm 1 mps 715 mmHg 36%
    17:00 +23°C° 0 mm 1 mps 714 mmHg 40%
    18:00 +22°C° 0 mm 1 mps 714 mmHg 44%
    19:00 +20°C° 0 mm 1 mps 714 mmHg 48%
    20:00 +18°C° 0 mm 1 mps 714 mmHg 52%
    21:00 +18°C° 0 mm 1 mps 715 mmHg 54%
    22:00 +15°C° 0 mm 0 mps 715 mmHg 56%
    23:00 +15°C° 0 mm 0 mps 715 mmHg 57%

    23 October, Wednesday

    Time Temperature Precipitation Wind Pressure Humidity
    00:00 +15°C° 0 mm 0 mps 715 mmHg 58%
    01:00 +14°C° 0 mm 0 mps 715 mmHg 59%
    02:00 +14°C° 0 mm 0 mps 715 mmHg 60%
    03:00 +14°C° 0 mm 0 mps 715 mmHg 61%
    04:00 +13°C° 0 mm 0 mps 715 mmHg 62%
    05:00 +13°C° 0 mm 0 mps 715 mmHg 63%
    06:00 +14°C° 0 mm 0 mps 715 mmHg 62%
    07:00 +14°C° 0 mm 0 mps 715 mmHg 61%
    08:00 +15°C° 0 mm 0 mps 716 mmHg 60%
    09:00 +19°C° 0 mm 1 mps 716 mmHg 53%
    10:00 +21°C° 0 mm 1 mps 716 mmHg 47%
    11:00 +24°C° 0 mm 2 mps 716 mmHg 40%
    12:00 +24°C° 0 mm 2 mps 716 mmHg 38%
    13:00 +25°C° 0 mm 2 mps 716 mmHg 36%
    14:00 +26°C° 0 mm 2 mps 715 mmHg 34%
    15:00 +24°C° 0 mm 2 mps 715 mmHg 39%
    16:00 +23°C° 0 mm 2 mps 715 mmHg 44%
    17:00 +21°C° 0 mm 2 mps 714 mmHg 49%
    18:00 +19°C° 0 mm 2 mps 714 mmHg 54%
    19:00 +19°C° 0 mm 1 mps 714 mmHg 58%
    20:00 +18°C° 0 mm 1 mps 714 mmHg 63%
    21:00 +16°C° 0 mm 1 mps 715 mmHg 64%
    22:00 +16°C° 0 mm 1 mps 715 mmHg 66%
    23:00 +15°C° 0 mm 1 mps 715 mmHg 68%
    Show more